Boonville, MO

3:46 AM CST on February 21, 2018 (GMT -0600)
Viertel Memorial

Weather History for KVER - December, 2013

Change the Weather History Date:

Tuesday, December 3, 2013

  Actual Average Record
Temperature  
Mean Temperature 50 °F -  
Max Temperature 62 °F 44 °F 74 °F (2012)
Min Temperature 37 °F 27 °F 3 °F (1985)
Degree Days  
Heating Degree Days 16    
Moisture  
Dew Point 44 °F    
Average Humidity 86    
Maximum Humidity 100    
Minimum Humidity 54    
Precipitation  
Precipitation 0.00 in - - ()
Sea Level Pressure  
Sea Level Pressure 29.61 in    
Wind  
Wind Speed 6 mph (SSE)    
Max Wind Speed 14 mph    
Max Gust Speed 20 mph    
Visibility 7 miles    
Events      
Averages and records for this station are not official NWS values.
T = Trace of Precipitation, MM = Missing Value Source: NWS Daily Summary

Daily Weather History Graph

Daily Weather History Graph

Search for Another Location

Airport or City:

Trip Planner

Search our weather history database for the weather conditions in past years. The results will help you decide how hot, cold, wet, or windy it might be!

Date:

Astronomy

Dec. 03, 2013 Rise Set
Actual Time 7:12 AM CST 4:48 PM CST
Civil Twilight 6:43 AM CST 5:18 PM CST
Nautical Twilight 6:09 AM CST 5:51 PM CST
Astronomical Twilight 5:37 AM CST 6:23 PM CST
Moon 7:42 AM CST (12/3) 5:52 PM CST (12/3)
Length of Visible Light 10h 35m
Length of Day
9h 35m
New Moon, 1% of the Moon is Illuminated
Dec 3
New Moon
Dec 9
First Quarter
Dec 17
Full
Dec 25
Last Quarter
Jan 1
New

Hourly Weather History & Observations

Time (CST) Temp. Windchill Dew Point Humidity Pressure Visibility Wind Dir Wind Speed Gust Speed Precip Events Conditions
12:15 AM 40.5 °F 36.5 °F 40.3 °F 99% 29.64 in 4.0 mi SSE 5.8 mph - N/A   Clear
12:35 AM 40.8 °F 36.9 °F 40.6 °F 99% 29.63 in 4.0 mi SSE 5.8 mph - N/A   Clear
12:55 AM 39.4 °F 35.2 °F 39.2 °F 99% 29.63 in 3.0 mi SE 5.8 mph - N/A   Clear
1:15 AM 38.3 °F 32.5 °F 38.3 °F 100% 29.62 in 4.0 mi SE 8.1 mph - N/A   Clear
1:35 AM 38.5 °F 33.4 °F 38.7 °F 100% 29.62 in 3.0 mi SSE 6.9 mph - N/A   Clear
1:55 AM 38.8 °F 35.4 °F 38.8 °F 100% 29.62 in 4.0 mi SSE 4.6 mph - N/A   Clear
2:15 AM 40.3 °F - 40.5 °F 100% 29.63 in 4.0 mi Calm Calm - N/A   Clear
2:35 AM 40.6 °F 37.5 °F 41.0 °F 100% 29.63 in 3.0 mi SE 4.6 mph - N/A   Clear
2:55 AM 39.7 °F 36.5 °F 39.9 °F 100% 29.63 in 3.0 mi SE 4.6 mph - N/A   Clear
3:15 AM - - - N/A% 29.63 in 3.0 mi SE 5.8 mph - N/A   Clear
3:35 AM 37.9 °F 33.5 °F 38.1 °F 100% 29.62 in 1.5 mi SSE 5.8 mph - N/A   Mist
3:55 AM 38.7 °F 35.2 °F 38.7 °F 100% 29.63 in 2.0 mi SSE 4.6 mph - N/A   Clear
4:15 AM 38.8 °F 35.4 °F 39.0 °F 100% 29.63 in 1.5 mi SSE 4.6 mph - N/A   Mist
4:35 AM 39.0 °F 36.8 °F 39.2 °F 100% 29.62 in 3.0 mi SSE 3.5 mph - N/A   Clear
4:55 AM 39.2 °F 35.9 °F 39.4 °F 100% 29.62 in 0.8 mi SE 4.6 mph - N/A   Mist
5:15 AM 38.1 °F 34.6 °F 38.1 °F 100% 29.61 in 1.5 mi SE 4.6 mph - N/A   Mist
5:35 AM - - - N/A% 29.61 in 3.0 mi SSE 4.6 mph - N/A   Clear
5:55 AM - - - N/A% 29.62 in 2.0 mi SE 6.9 mph - N/A   Clear
6:15 AM 39.4 °F 36.1 °F 39.4 °F 100% 29.62 in 3.0 mi SE 4.6 mph - N/A   Clear
6:35 AM 38.7 °F 33.6 °F 38.8 °F 100% 29.62 in 2.5 mi SE 6.9 mph - N/A   Clear
6:55 AM 39.7 °F 35.6 °F 39.9 °F 100% 29.62 in 3.0 mi SE 5.8 mph - N/A   Clear
7:15 AM 40.3 °F 37.1 °F 40.5 °F 100% 29.62 in 3.0 mi SSE 4.6 mph - N/A   Clear
7:35 AM 40.3 °F 36.3 °F 40.5 °F 100% 29.63 in 1.8 mi SE 5.8 mph - N/A   Mist
7:55 AM 41.0 °F 35.8 °F 41.4 °F 100% 29.62 in 2.0 mi SE 8.1 mph - N/A   Clear
8:15 AM 42.1 °F 38.4 °F 42.4 °F 100% 29.62 in 3.0 mi SSE 5.8 mph - N/A   Clear
8:35 AM 42.6 °F 39.0 °F 42.8 °F 100% 29.62 in 2.5 mi SSE 5.8 mph - N/A   Clear
8:55 AM - - - N/A% 29.63 in 3.0 mi South 5.8 mph - N/A   Clear
9:15 AM 44.6 °F 40.7 °F 44.8 °F 100% 29.63 in 4.0 mi South 6.9 mph - N/A   Clear
9:35 AM 45.7 °F 41.5 °F 45.9 °F 100% 29.63 in 5.0 mi SSE 8.1 mph - N/A   Clear
9:55 AM 46.4 °F 42.9 °F 46.6 °F 100% 29.64 in 5.0 mi SSE 6.9 mph - N/A   Clear
10:15 AM 47.5 °F - 47.1 °F 99% 29.64 in 5.0 mi SSE 8.1 mph - N/A   Clear
10:35 AM 48.9 °F - 48.0 °F 97% 29.64 in 7.0 mi SSE 8.1 mph - N/A   Clear
10:55 AM 50.5 °F - 48.7 °F 94% 29.63 in 7.0 mi SE 5.8 mph - N/A   Clear
11:15 AM 52.2 °F - 49.5 °F 91% 29.63 in 10.0 mi SE 8.1 mph - N/A   Clear
11:35 AM 53.8 °F - 50.0 °F 87% 29.62 in 10.0 mi SE 8.1 mph - N/A   Scattered Clouds
11:55 AM 54.7 °F - 49.1 °F 81% 29.62 in 10.0 mi SE 8.1 mph - N/A   Scattered Clouds
12:15 PM 54.3 °F - 47.8 °F 79% 29.60 in 10.0 mi SSE 9.2 mph - N/A   Clear
12:35 PM 54.7 °F - 47.8 °F 78% 29.60 in 10.0 mi SSE 9.2 mph - N/A   Clear
12:55 PM 56.7 °F - 48.2 °F 73% 29.59 in 10.0 mi SSE 9.2 mph - N/A   Clear
1:15 PM 58.5 °F - 48.0 °F 68% 29.58 in 10.0 mi SSE 9.2 mph - N/A   Clear
1:35 PM 59.4 °F - 48.4 °F 67% 29.58 in 10.0 mi SE 10.4 mph - N/A   Clear
1:55 PM 60.8 °F - 48.4 °F 64% 29.57 in 10.0 mi SSE 8.1 mph - N/A   Clear
2:15 PM 62.4 °F - 46.9 °F 57% 29.56 in 10.0 mi SSE 13.8 mph 19.6 mph N/A   Clear
2:35 PM 62.6 °F - 45.7 °F 54% 29.55 in 10.0 mi SSE 12.7 mph - N/A   Clear
2:55 PM 61.3 °F - 46.0 °F 57% 29.55 in 10.0 mi SSE 12.7 mph - N/A   Clear
3:15 PM 60.8 °F - 46.4 °F 59% 29.55 in 10.0 mi SSE 9.2 mph - N/A   Clear
3:35 PM 60.1 °F - 46.0 °F 60% 29.55 in 10.0 mi SSE 10.4 mph - N/A   Clear
3:55 PM 60.1 °F - 45.7 °F 59% 29.56 in 10.0 mi South 9.2 mph - N/A   Clear
4:15 PM 59.5 °F - 45.7 °F 60% 29.58 in 10.0 mi SSE 8.1 mph - N/A   Clear
4:35 PM 57.9 °F - 45.5 °F 63% 29.58 in 10.0 mi SSE 5.8 mph - N/A   Clear
4:55 PM 56.5 °F - 44.8 °F 65% 29.59 in 10.0 mi SSE 5.8 mph - N/A   Clear
5:15 PM 55.0 °F - 44.2 °F 67% 29.59 in 10.0 mi SSE 6.9 mph - N/A   Clear
5:35 PM 53.8 °F - 43.9 °F 69% 29.59 in 10.0 mi SE 6.9 mph - N/A   Clear
5:55 PM 53.1 °F - 43.7 °F 71% 29.59 in 10.0 mi SSE 8.1 mph - N/A   Clear
6:15 PM 52.0 °F - 43.5 °F 73% 29.59 in 10.0 mi SSE 9.2 mph - N/A   Clear
6:35 PM 52.2 °F - 43.5 °F 72% 29.60 in 10.0 mi SSE 9.2 mph - N/A   Clear
6:55 PM 52.2 °F - 43.9 °F 73% 29.60 in 10.0 mi SSE 8.1 mph - N/A   Clear
7:15 PM 51.4 °F - 44.2 °F 76% 29.60 in 10.0 mi SSE 8.1 mph - N/A   Clear
7:35 PM 50.4 °F - 44.2 °F 80% 29.60 in 10.0 mi SE 6.9 mph - N/A   Clear
7:55 PM 49.1 °F - 44.1 °F 83% 29.60 in 10.0 mi SE 6.9 mph - N/A   Clear
8:15 PM 48.7 °F - 44.6 °F 86% 29.61 in 10.0 mi SE 5.8 mph - N/A   Clear
8:35 PM 49.5 °F - 45.1 °F 85% 29.61 in 10.0 mi SE 6.9 mph - N/A   Clear
8:55 PM 50.0 °F - 45.3 °F 84% 29.61 in 10.0 mi SE 5.8 mph - N/A   Clear
9:15 PM 49.5 °F - 45.1 °F 85% 29.61 in 10.0 mi SE 6.9 mph - N/A   Clear
9:35 PM 48.9 °F - 45.9 °F 89% 29.61 in 10.0 mi SE 6.9 mph - N/A   Clear
9:55 PM 49.1 °F - 46.4 °F 90% 29.60 in 10.0 mi SE 8.1 mph - N/A   Clear
10:15 PM 48.7 °F - 46.6 °F 92% 29.61 in 10.0 mi SSE 5.8 mph - N/A   Clear
10:35 PM 48.4 °F - 46.8 °F 94% 29.63 in 10.0 mi SSE 8.1 mph - N/A   Clear
10:55 PM 49.6 °F - 48.0 °F 94% 29.64 in 10.0 mi SSE 5.8 mph - N/A   Mostly Cloudy
11:15 PM 50.2 °F - 48.6 °F 94% 29.64 in 7.0 mi South 6.9 mph - N/A   Overcast
11:35 PM 50.9 °F - 49.3 °F 94% 29.63 in 7.0 mi SSE 6.9 mph - N/A   Overcast
11:55 PM 50.7 °F - 49.3 °F 95% 29.62 in 7.0 mi SE 6.9 mph - N/A   Overcast